Location: São Paulo
(23.5507°S, 46.6334°W)
Time: 13:04:57
(UTC-03:00)

N. Korean satellite - Visible Passes

Search period start: 23 July 2021 00:00
Search period end: 02 August 2021 00:00
Orbit: 451 x 497 km, 97.2° (Epoch: 22 July)

Date Brightness Start Highest point End Pass type
(mag) Time Alt. Az. Time Alt. Az. Time Alt. Az.
23 Jul 8.8 05:26:51 10° NNW 05:27:15 12° NNW 05:27:15 12° NNW visible
24 Jul 8.8 04:58:46 10° N 04:59:31 16° N 04:59:31 16° N visible
24 Jul 9.5 18:07:23 10° SW 18:09:24 15° WSW 18:11:24 10° WNW visible
25 Jul 9.5 04:31:33 10° NNE 04:31:48 12° NNE 04:31:48 12° NNE visible
27 Jul 8.8 05:09:48 10° N 05:10:29 15° NNW 05:10:29 15° NNW visible
27 Jul 10.1 18:19:56 10° WSW 18:20:11 10° WSW 18:20:27 10° WSW visible
28 Jul 9.2 04:42:14 10° NNE 04:42:45 14° NNE 04:42:45 14° NNE visible
30 Jul 8.8 05:20:56 10° NNW 05:21:25 13° NNW 05:21:25 13° NNW visible
31 Jul 8.9 04:52:58 10° N 04:53:40 15° N 04:53:40 15° N visible
01 Aug 9.7 04:25:53 10° NE 04:25:55 10° NE 04:25:55 10° NE visible
